This demonstration page uses our WeatherBlox Daily Observations layout. Learn more.

Left ArrowRight Arrow

34.16533, -84.80231

Hourly Observations for December 6, 2017

Temp ( °F °C ) Dew Point ( °F °C ) Humidity (%) Winds ( mph kmh ) Pressure ( in mb ) Visibility ( mi km ) Precip ( " mm )
12:05 am 00:05 Cloudy 49 9.4 47 8.3 93 93 NNW 6 9 30.15 1021 10 16 0.00 0.00
12:53 am 00:53 Cloudy 46 7.8 39 3.9 77 77 VRB 3 6 30.14 1021 10 16 0.00 0.00
1:20 am 01:20 Cloudy 45 7.2 39 3.9 80 80 NNW 6 9 30.15 1021 10 16 0.00 0.00
1:53 am 01:53 Cloudy 44 6.7 37 2.8 76 76 Calm 30.14 1021 10 16 0.00 0.00
2:53 am 02:53 Partly Cloudy 43 6.1 35 1.7 74 74 NNW 8 13 30.16 1021 10 16 0.00 0.00
3:53 am 03:53 Clear 41 5 31 -0.6 67 67 VRB 6 9 30.16 1021 10 16 0.00 0.00
4:53 am 04:53 Clear 40 4.4 30 -1.1 68 68 undefined N/A 30.15 1021 10 16 0.00 0.00
5:53 am 05:53 Clear 39 3.9 29 -1.7 67 67 NNW 6 9 30.16 1021 10 16 0.00 0.00
6:53 am 06:53 Mostly Clear 39 3.9 27 -2.8 62 62 VRB 6 9 30.17 1022 10 16 0.00 0.00
7:53 am 07:53 Sunny 39 3.9 27 -2.8 62 62 VRB 5 7 30.17 1022 10 16 0.00 0.00
8:53 am 08:53 Sunny 40 4.4 25 -3.9 55 55 VRB 3 6 30.20 1023 10 16 0.00 0.00
9:53 am 09:53 Sunny 40 4.4 23 -5 51 51 NNW 8 13 30.23 1024 10 16 0.00 0.00
10:53 am 10:53 Cloudy 41 5 22 -5.6 47 47 VRB 6 9 30.22 1023 10 16 0.00 0.00
11:53 am 11:53 Cloudy 41 5 23 -5 49 49 VRB 7 11 30.22 1023 10 16 0.00 0.00
12:53 pm 12:53 Cloudy 41 5 23 -5 49 49 VRB 3 6 30.20 1023 10 16 0.00 0.00
1:53 pm 13:53 Cloudy 42 5.6 22 -5.6 45 45 VRB 6 9 30.18 1022 10 16 0.00 0.00
2:53 pm 14:53 Cloudy 42 5.6 22 -5.6 45 45 VRB 3 6 30.14 1021 10 16 0.00 0.00
3:53 pm 15:53 Partly Cloudy 42 5.6 23 -5 47 47 NNW 5 7 30.14 1021 10 16 0.00 0.00
4:53 pm 16:53 Sunny 42 5.6 25 -3.9 51 51 Calm 30.14 1021 10 16 0.00 0.00
5:53 pm 17:53 Clear 41 5 27 -2.8 57 57 Calm 30.16 1022 10 16 0.00 0.00
6:53 pm 18:53 Clear 41 5 28 -2.2 60 60 Calm 30.18 1022 10 16 0.00 0.00
7:53 pm 19:53 Clear 41 5 28 -2.2 60 60 Calm 30.20 1023 10 16 0.00 0.00
8:53 pm 20:53 Clear 41 5 29 -1.7 62 62 Calm 30.21 1023 10 16 0.00 0.00
9:53 pm 21:53 Cloudy 41 5 27 -2.8 57 57 VRB 3 6 30.20 1023 10 16 0.00 0.00
10:53 pm 22:53 Cloudy 41 5 30 -1.1 65 65 Calm 30.21 1023 10 16 0.00 0.00
11:53 pm 23:53 Cloudy 41 5 31 -0.6 67 67 Calm 30.19 1022 10 16 0.00 0.00

Powered by AerisWeather